Location: Dimsdale
(55.1333°N, 118.9833°W)
Time: 13:41:08
(UTC+00:00)

PCSat - Pass Details

Date: 05 December 2023
Orbit: 784 x 792 km, 67.0° (Epoch: 04 March)

Event Time Altitude Azimuth Distance (km) Brightness Sun altitude
Exits shadow 10:46:57 12° 91° (E) 2,243 12.4 -43.2°
Drops below altitude 10° 10:47:58 10° 81° (E) 2,354 12.6 -43.1°
Sets 10:51:58 0° 52° (NE) 3,292 13.6 -42.6°
